Dewpoint
56 55 56 56 56 54 52 52 54 53 54 53 54 54 53 53 52 53 55 54 55 55 55 57 54 50 45 43 41 46 55 54 45 34 31 30 33 32 30 30 32 31 31 32 32 30 30
56 56 55 54 54 53 51 52 53 53 53 53 53 54 54 54 53 53 54 53 52 55 55 57 52 47 44 39 41 42 43 42 44 38 32 30 34 35 34 33 32 33 33 31 31 31 30
54 54 54 54 53 53 52 53 53 53 53 53 53 54 54 54 53 54 52 50 51 52 53 56 51 44 42 41 44 44 44 43 42 38 34 35 36 34 35 31 34 32 30 30 30 30 28
53 52 52 54 53 52 53 53 53 53 54 53 52 54 53 53 54 54 53 50 52 53 52 55 50 43 41 45 45 44 44 43 44 43 42 41 39 35 32 33 32 30 30 27 27 27 27
52 52 52 53 53 52 52 52 52 52 52 53 53 53 52 53 53 53 54 53 53 54 55 51 44 44 40 46 41 43 44 42 42 42 41 40 37 32 32 30 29 30 26 26 26 28 27
51 52 51 52 51 51 51 52 52 52 53 52 52 52 53 53 53 53 53 53 53 51 49 46 45 41 40 31 37 41 44 42 41 40 39 38 32 31 31 29 24 25 27 24 26 25 26
50 50 50 51 51 50 48 50 51 52 52 50 51 52 53 52 52 53 50 46 44 42 45 40 39 38 37 38 39 39 42 41 40 38 35 33 29 28 29 31 30 29 27 27 27 28 27
52 51 51 51 50 49 49 49 51 50 51 50 51 52 52 52 52 53 48 42 41 42 39 42 42 41 40 40 36 35 40 37 37 34 35 33 31 32 32 30 30 30 29 28 29 29 26
52 52 52 52 51 51 49 49 51 50 51 50 51 52 52 52 52 52 46 45 48 46 39 39 42 41 41 41 36 34 37 35 33 32 33 33 32 34 32 31 30 29 29 28 27 29 29
51 51 51 51 51 51 50 50 50 51 51 50 51 51 50 51 50 49 47 49 48 46 29 29 38 40 41 41 38 36 36 34 32 31 31 31 32 30 29 29 30 27 28 29 30 27 24
50 51 50 51 51 51 50 51 50 51 51 51 51 49 49 51 45 46 45 48 48 42 1 23 36 41 41 38 32 37 35 34 31 31 31 29 29 30 29 28 28 27 33 31 31 28 27
50 51 50 50 51 51 51 51 51 51 51 51 50 49 49 49 50 47 48 48 46 22 -2 20 36 37 38 37 34 37 35 36 33 32 32 29 33 30 29 31 31 34 31 30 31 29 20
49 49 49 50 50 50 50 50 50 50 50 50 49 48 48 49 43 49 48 46 31 16 18 17 29 36 35 34 32 31 34 31 31 29 29 30 31 33 34 32 34 31 30 28 21 21 20
49 49 49 49 49 49 50 50 50 50 50 49 48 47 49 48 48 48 47 39 23 24 23 23 26 34 31 32 31 31 32 31 31 29 28 27 23 33 35 32 31 30 29 25 18 18 20
48 49 49 49 49 49 48 49 49 49 49 49 47 44 46 48 49 49 42 30 24 25 26 24 18 19 23 29 28 30 29 29 30 30 25 27 27 30 34 33 32 30 27 28 27 27 21
47 47 48 48 48 48 49 49 49 49 49 48 42 41 42 48 49 47 38 30 29 28 28 29 22 24 19 19 26 28 27 29 28 31 30 29 25 29 32 33 32 30 31 26 27 19 18
45 46 46 47 47 47 47 48 48 48 49 47 41 37 41 48 48 42 31 30 28 30 30 28 28 28 29 27 24 25 25 30 31 31 31 31 29 27 32 31 30 30 29 30 28 25 20
45 44 45 45 45 46 46 47 47 48 48 46 41 34 40 48 36 35 33 33 34 32 31 32 35 32 30 29 28 26 29 31 33 34 31 35 33 29 28 30 32 31 29 31 22 22 27
44 43 43 44 44 45 46 46 46 47 47 44 37 36 42 43 30 30 32 32 33 31 31 33 30 33 34 30 28 29 29 35 33 35 35 36 32 26 28 31 33 33 30 31 31 30 26
44 43 42 43 43 44 45 45 45 46 47 43 35 30 33 37 36 31 31 33 32 36 34 36 34 33 31 29 31 28 31 34 34 35 41 39 34 28 22 25 29 30 30 30 30 27 25
43 42 43 43 43 43 44 44 45 45 46 43 36 31 32 27 30 33 32 31 29 32 34 36 32 34 31 29 28 29 32 31 30 39 37 35 29 31 32 31 32 32 30 30 27 27 25
41 41 42 42 42 43 43 43 45 45 45 41 31 32 35 30 30 32 31 30 29 29 30 35 33 33 35 31 31 25 32 31 28 31 31 32 26 28 27 29 27 27 21 11 23 26 27
41 41 41 41 42 42 42 43 43 44 43 38 36 39 36 31 28 29 28 28 27 30 30 30 32 33 32 34 35 34 32 34 34 28 29 30 29 28 24 30 32 27 23 15 25 26 28
40 40 41 41 41 41 41 42 43 43 42 39 40 35 32 26 30 28 27 28 28 28 30 32 33 31 33 38 39 37 33 30 32 28 31 29 29 29 25 27 20 25 29 29 26 26 29
40 40 40 40 40 40 41 42 42 43 42 38 39 38 35 29 27 31 31 28 29 29 29 30 31 37 38 36 32 30 28 30 30 29 28 30 28 26 20 22 23 24 26 25 25 24 27
37 38 39 39 40 40 41 42 42 43 42 41 38 41 37 32 30 33 33 32 30 31 30 30 38 42 39 32 30 23 21 23 25 26 28 29 29 26 24 18 16 19 27 28 24 15 26
37 38 37 37 38 40 40 41 42 42 42 40 39 41 39 32 33 35 32 31 34 32 31 32 37 36 37 30 24 22 21 22 21 22 26 27 27 23 21 19 20 27 28 28 11 15 25
38 40 39 37 37 38 40 41 42 42 42 41 40 43 38 33 35 36 35 34 34 34 28 32 33 32 31 27 27 25 22 22 21 19 22 21 22 21 20 18 13 27 27 22 22 25 24
41 41 41 41 42 40 40 41 42 42 43 43 39 43 43 36 34 38 37 39 38 38 31 32 30 31 32 29 26 28 27 24 23 20 27 17 21 20 23 20 27 29 27 26 26 25 22
Lifted_Index
6 5 5 6 6 6 7 8 8 9 10 11 12 12 12 12 12 12 12 12 12 11 11 10 10 11 10 9 9 9 9 7 6 5 5 5 5 5 5 5 6 6 6 7 7 7 7
7 6 6 7 7 8 8 9 9 10 11 12 12 12 12 12 12 12 12 12 12 12 11 10 10 11 9 8 9 10 9 8 7 6 5 5 6 6 6 6 6 6 7 7 7 8 8
8 8 8 8 9 9 10 10 11 11 11 12 12 11 11 12 12 12 12 12 12 12 11 10 10 10 9 8 9 10 10 9 8 6 6 6 6 7 7 7 7 7 6 7 7 8 8
9 9 9 9 10 10 11 11 11 11 11 11 11 11 11 11 11 11 11 12 11 11 10 10 10 10 9 9 9 10 9 9 8 7 6 6 6 7 7 7 7 6 6 5 7 8 8
9 9 9 9 10 10 11 11 10 10 10 10 11 11 11 11 11 10 10 10 10 10 10 10 10 10 9 9 9 9 8 8 8 7 6 5 6 6 6 6 5 5 4 4 6 7 8
9 9 9 9 10 10 10 10 10 10 10 10 11 11 11 11 10 10 9 9 10 10 10 10 10 10 9 8 8 7 7 7 7 6 5 5 5 6 5 5 5 4 4 4 6 7 8
9 9 9 10 10 10 10 10 10 10 10 11 11 10 10 10 10 9 8 9 9 10 10 10 10 9 9 8 8 7 6 6 6 5 5 5 5 5 5 6 6 5 5 5 6 8 8
9 9 9 9 10 10 10 10 10 10 10 10 10 10 10 10 9 8 7 7 8 8 9 9 9 9 9 8 8 7 6 6 6 5 5 5 5 5 5 6 6 6 5 6 7 7 8
8 8 9 9 9 9 10 10 10 10 10 10 10 9 9 9 8 7 7 6 6 6 7 8 8 8 8 8 8 7 6 6 6 6 6 6 6 6 6 6 6 6 6 6 6 7 7
8 8 9 9 9 9 9 9 9 9 9 9 9 9 9 9 8 7 6 6 6 5 6 7 8 8 8 7 6 7 6 6 6 6 6 6 6 6 6 6 6 6 6 6 6 6 6
7 8 8 8 8 7 7 7 8 8 8 8 9 9 9 8 7 6 6 5 5 4 4 6 8 8 7 6 5 6 6 6 6 6 6 6 6 6 6 6 6 6 5 5 6 5 5
6 6 6 6 6 6 6 6 7 7 7 7 8 9 9 8 7 6 5 5 4 4 4 6 7 6 6 5 5 5 6 6 5 5 5 6 6 5 5 5 5 5 4 4 4 4 4
5 5 5 5 5 5 5 5 6 6 6 7 8 8 8 7 6 5 4 4 4 4 5 6 5 5 5 5 4 4 5 5 5 4 5 5 5 5 4 4 4 4 3 3 2 2 2
4 4 4 5 5 5 5 5 5 5 6 6 7 7 7 6 5 4 3 3 4 5 6 5 5 4 4 4 4 4 4 4 4 4 4 4 4 4 3 3 3 3 2 2 1 1 1
3 3 4 4 5 5 5 5 5 5 5 6 7 6 6 5 4 3 3 4 5 6 6 5 4 4 4 4 4 3 3 3 3 3 3 3 3 3 2 2 2 2 2 1 1 1 1
2 3 3 4 5 5 5 5 5 5 6 6 6 6 5 4 3 2 2 4 5 6 5 5 4 4 4 4 3 3 2 3 3 3 2 2 2 2 2 1 1 1 1 1 1 1 1
2 2 3 3 4 4 5 5 5 5 6 6 6 6 5 4 3 2 2 4 5 5 4 4 3 3 3 2 2 2 2 2 2 2 1 1 1 1 1 1 0 0 0 1 1 1 1
1 2 2 3 3 4 4 4 4 4 5 5 6 5 5 4 2 2 2 3 4 4 3 3 2 2 2 1 1 1 1 1 1 1 1 0 0 0 1 0 0 0 0 1 1 1 1
0 1 1 2 3 4 4 4 4 4 4 5 5 5 4 3 2 2 2 3 3 3 3 2 2 2 1 1 1 1 1 0 0 0 0 0 0 0 0 0 0 1 1 1 1 1 1
-0 0 1 1 2 3 3 4 4 4 4 4 4 5 4 4 3 3 3 3 2 2 2 2 2 1 1 1 1 1 1 0 0 0 -0 -0 -0 0 0 1 1 1 1 1 1 1 1
0 0 0 1 2 3 3 3 3 3 3 3 4 4 4 4 4 4 4 3 3 2 2 2 2 1 1 0 0 0 0 0 0 0 0 -0 -0 0 0 0 1 1 1 1 1 1 1
0 0 -0 0 2 3 3 3 3 3 3 3 3 4 4 4 4 4 4 3 3 2 2 2 1 1 1 0 0 0 0 0 0 0 0 0 0 1 1 1 0 1 1 1 1 1 1
0 0 -0 0 1 2 3 3 3 3 3 3 4 4 4 4 4 3 3 3 2 2 2 2 1 1 1 1 1 0 0 0 0 0 0 0 1 1 1 1 1 1 1 1 1 1 2
0 -0 -0 0 1 2 2 3 3 3 4 4 4 4 3 3 3 3 2 2 2 2 2 1 1 1 1 1 1 1 0 0 0 0 0 1 1 1 1 1 1 1 1 1 2 2 2
0 0 -0 0 1 1 2 2 2 3 3 4 4 3 3 3 2 2 2 2 2 2 2 1 1 0 0 0 0 0 0 0 0 0 1 1 1 1 1 1 1 2 2 2 2 2 3
1 1 0 0 1 1 2 2 2 2 3 4 4 3 2 2 1 1 1 1 1 2 2 1 0 0 -0 -0 -0 0 0 0 0 1 1 1 1 1 1 1 2 2 3 2 2 2 3
1 1 1 1 2 2 2 2 2 2 3 3 3 3 2 2 1 1 1 1 1 1 1 1 0 0 0 -0 0 0 1 1 1 1 1 1 1 1 1 1 2 3 3 3 2 3 3
1 1 1 2 2 2 2 2 2 2 2 3 3 2 2 1 1 1 1 1 1 1 1 1 0 0 0 0 0 1 1 1 1 1 1 1 1 1 1 1 2 3 3 3 3 3 4
0 1 1 1 2 2 2 2 2 2 2 2 3 2 2 1 1 1 1 1 1 1 1 1 0 0 0 1 1 1 1 1 0 1 1 1 1 1 1 2 2 3 3 3 3 4 4